www.pogodaiklimat.ru

Погода и климат >> Архив погоды >> Хорватия >> Сплит аэропорт


ПОГОДА в Сплит аэропорту

  • Прогноз погоды в Сплит аэропорту
  • Монитор погоды в Сплит аэропорту

АРХИВ ПОГОДЫ в Сплит аэропорту

Время (UTC), дата Ветер
(напр.,м/с)
 
Видим.   Явления Облачность Т
(С)
Тd
(С)
f
(%)
Тe
(С)
Тes
(С)
Комфортность P
(гПа)
Po
(гПа)
Тmin
(С)
Tmax
(С)
R
(мм)
R24
(мм)
S
(см)
03 12.09 З 1 30 км 6/0
[Ac trans Ci sp]
+21.4 +15.3 68 +25 +25 комфорт 1021.3 1018.7
06 12.09 СЗ 2 30 км 6/0
[Ac cast Ci sp]
+23.0 +15.0 61 +27 +28 душно 1022.6 1020.1 +20.3
09 12.09 ЮВ 2 30 км 4/0
[Ac trans Ci sp]
+28.2 +15.2 45 +31 +39 душно 1024.0 1021.5
12 12.09 ЮЗ 4 30 км {гроза, дождь} 1/1 1500 м
[Cu hum]
+28.8 +15.8 45 +32 +39 душно 1023.5 1021.0 0.1
15 12.09 Ю 3 30 км 3/1 1500 м
[Cu hum Ci sp]
+29.8 +16.1 44 +33 +35 душно 1023.1 1020.6
18 12.09 СВ 4 30 км 3/0
[Ci sp]
+26.1 +12.4 43 +28 +28 жарко 1024.8 1022.3 +30.8 0.1
21 12.09 СВ 3 30 км ясно +23.3 +12.0 49 +26 +26 жарко 1026.6 1024.0
00 13.09 В 3 30 км ясно +23.4 +12.7 51 +26 +26 жарко 1026.8 1024.2
03 13.09 В 2 30 км 1/0
[Ci fib]
+23.4 +11.7 48 +26 +26 жарко 1026.8 1024.2
06 13.09 СВ 3 20 км ясно +23.9 +12.4 49 +26 +27 жарко 1027.5 1025.0 +21.4
09 13.09 В 4 30 км ясно +27.2 +13.5 43 +29 +36 жарко 1027.9 1025.4
12 13.09 ЮЗ 5 30 км 4/4 1500 м
[Cu hum]
+28.2 +13.8 41 +30 +34 жарко 1026.6 1024.1
15 13.09 ЮЗ 5 30 км ясно +28.1 +15.6 47 +31 +33 душно 1024.8 1022.3
18 13.09 В 2 40 км ясно +26.1 +10.8 38 +27 +27 жарко 1025.2 1022.7 +28.8
21 13.09 СВ 5 40 км ясно +24.9 +10.4 40 +26 +26 жарко 1026.3 1023.8
00 14.09 СВ 3 40 км ясно +20.9 +10.4 51 +23 +23 комфорт 1026.0 1023.4
03 14.09 СВ 4 40 км ясно +22.2 +10.1 46 +24 +24 комфорт 1025.7 1023.1
06 14.09 СВ 4 40 км ясно +24.5 +9.9 40 +25 +26 комфорт 1026.0 1023.5 +20.4
09 14.09 В 5 40 км 1/0
[Ci fib]
+28.2 +12.4 38 +30 +34 жарко 1026.1 1023.6
12 14.09 ЮЗ 4 40 км 3/0
[Ci fib]
+28.9 +12.2 36 +30 +37 жарко 1024.8 1022.3
15 14.09 ЮЗ 5 40 км 1/0
[Cc]
+28.4 +14.0 41 +30 +32 жарко 1023.2 1020.7
18 14.09 ЮВ 2 40 км 1/0
[Ci fib]
+26.0 +11.3 40 +27 +27 жарко 1023.7 1021.2 +30.0
21 14.09 СВ 3 40 км ясно +25.0 +11.5 43 +26 +26 жарко 1024.7 1022.2
00 15.09 СЗ 2 40 км ясно +21.5 +10.9 51 +23 +23 комфорт 1024.1 1021.5
03 15.09 С 3 40 км ясно +21.0 +10.9 52 +23 +23 комфорт 1023.7 1021.1
06 15.09 СВ 1 40 км 1/0
[Ci fib]
+23.2 +12.4 51 +26 +27 жарко 1024.2 1021.7 +19.5
09 15.09 В 3 40 км 1/0
[Ci fib]
+27.1 +11.4 38 +28 +36 жарко 1024.8 1022.3
12 15.09 ЮЗ 5 40 км 4/0
[Cs]
+27.5 +13.2 41 +29 +35 жарко 1023.1 1020.6
15 15.09 ЮЗ 5 40 км 4/0
[Cs]
+26.7 +13.6 44 +29 +30 жарко 1021.6 1019.1
18 15.09 З 5 40 км 6/0
[Cs]
+24.3 +12.4 47 +26 +26 жарко 1021.3 1018.8 +27.9
21 15.09 С 2 40 км 8/0
[Cs]
+22.5 +12.8 54 +25 +25 комфорт 1021.1 1018.6
00 16.09 С 1 40 км 8/0
[Cs]
+19.8 +14.1 70 +23 +23 комфорт 1020.5 1017.9
03 16.09 СЗ 2 40 км 6/0
[Cs]
+18.3 +13.3 73 +19 +19 1019.5 1016.9
06 16.09 штиль 0 40 км 8/0
[Cs]
+21.1 +15.1 69 +24 +25 комфорт 1019.4 1016.8 +16.9
09 16.09 ЮВ 1 40 км 6/0
[Ci sp]
+25.7 +14.8 51 +28 +38 жарко 1019.5 1017.0
12 16.09 ЮЗ 3 50 км 6/0
[Ci sp]
+26.4 +16.3 54 +30 +38 душно 1018.1 1015.6
15 16.09 ЮЗ 4 50 км 4/0
[Ci fib]
+27.3 +16.9 53 +31 +33 душно 1016.5 1014.0
18 16.09 СЗ 3 30 км 1/0
[Ci fib]
+23.6 +14.4 56 +26 +26 жарко 1016.4 1013.9 +27.8
21 16.09 СЗ 1 30 км ясно +20.2 +12.4 61 +23 +23 комфорт 1016.7 1014.1
00 17.09 С 2 30 км ясно +19.0 +14.5 75 +21 +21 комфорт 1016.4 1013.8
03 17.09 СЗ 1 30 км ясно +18.6 +14.1 75 +20 +20 1015.6 1013.0
06 17.09 С 2 30 км 1/0
[Ci fib]
+20.3 +15.7 75 +24 +25 комфорт 1016.1 1013.6 +16.9
09 17.09 В 2 30 км 1/0
[Ci fib]
+25.2 +15.9 56 +28 +37 жарко 1016.3 1013.8
12 17.09 ЮЗ 4 30 км 1/1 1500 м
[Cu hum]
+25.5 +19.0 67 +30 +37 душно 1015.5 1013.0
15 17.09 ЮЗ 3 30 км 4/0
[Ac trans Ci fib]
+25.1 +17.4 62 +29 +31 душно 1014.6 1012.1
18 17.09 СЗ 2 40 км 1/0
[Ac trans]
+22.0 +16.4 71 +26 +26 душно 1014.2 1011.7 +27.0
21 17.09 СЗ 2 40 км ясно +20.7 +15.5 72 +24 +24 комфорт 1014.6 1012.1
00 18.09 С 2 40 км 1/0
[Ac trans]
+20.0 +15.9 77 +23 +23 комфорт 1015.0 1012.4
03 18.09 штиль 0 40 км 3/0
[Ac trans]
+19.7 +17.3 86 +22 +22 комфорт 1014.8 1012.2
06 18.09 СВ 1 30 км 6/0
[Ac trans Cc]
+22.6 +17.3 72 +27 +28 душно 1015.2 1012.7 +18.5
09 18.09 Ю 1 30 км 4/1 1500 м
[Cu med, cong Ac As Ci sp]
+25.1 +17.6 63 +29 +37 душно 1016.0 1013.5
12 18.09 ЮЗ 4 30 км 5/4 1500 м
[Cu Sc Ac trans]
+27.0 +17.7 57 +31 +35 душно 1015.3 1012.8
15 18.09 ЮЗ 3 40 км 9/8 2000 м
[Sc Ac trans]
+25.6 +17.9 62 +30 +30 душно 1015.0 1012.5
18 18.09 С 2 40 км 1/0
[Ci fib]
+22.2 +16.2 69 +26 +26 душно 1015.8 1013.3 +28.0
21 18.09 С 3 40 км 1/0
[Ac trans]
+21.0 +14.7 67 +24 +24 комфорт 1016.6 1014.1
00 19.09 С 3 30 км 6/0
[Ac trans]
+19.8 +14.2 70 +22 +22 комфорт 1016.6 1014.0

 

Местоположение метеостанции Сплит аэропорт (Хорватия): широта 43.53 долгота 16.30 высота над уровнем моря 21 м.

В архиве по умолчанию представлена погода в Сплит аэропорту за последнюю неделю. Архивные данные за месяц целиком и за предыдущие месяцы, начиная с января 2011 года, Вы можете получить, выбрав интересующий диапазон дат из раскрывающегося списка и нажав кнопку "Ввод!".


*Определитесь, кто Вы:
робот инопланетянин человек

Внимание! Время в таблицах - всемирное. Для получения местного времени необходимо прибавить поправку, которая равна 1 ч.

Смотрите также архив погоды в соседних городах и на ближайших метеорологических станциях:

Погода в Сплите (Хорватия) (11 км)
Погода в Шибенике (Хорватия) (38 км)
Погода в Хваре (Хорватия) (42 км)
Погода в Комице (Хорватия) (56 км)
Погода в Макарска (Хорватия) (64 км)
Погода в Ливно (Босния и Герцеговина) (67 км)
Погода в Ластово (Хорватия) (98 км)
Погода в Задар аэропорту (Хорватия) (99 км)
Погода в Плоче (Хорватия) (107 км)
Погода в Задаре (Хорватия) (109 км)

Пояснения к столбцам:

Ветер - указаны скорость ветра в м/с - средняя за 10 мин, порывы в срок и между сроками (в фигурных скобках) и направление, откуда дует ветер: С - северный, СВ - северо-восточный, В - восточный, ЮВ - юго-восточный, Ю - южный, ЮЗ - юго-западный, З - западный, СЗ - северо-западный.
Видимость - горизонтальная дальность видимости в метрах или километрах. При видимости от 1 до 10 км при отсутствии осадков обычно наблюдается дымка, при ухудшении видимости до 1 км и менее - туман. В сухую погоду видимость может ухудшаться дымом, пылью или мглою.
Явления - указаны атмосферные явления, наблюдавшиеся в срок или в последний час перед сроком; фигурными скобками обозначены явления, наблюдавшиеся между сроками (за 1-3 часа до срока); квадратными скобками обозначены град или гололедные отложения с указанием их диаметра в мм.
Облачность - указаны через наклонную черту общая и нижняя облачность в баллах и высота нижней границы облаков в метрах; квадратными скобками обозначены формы облаков: Ci - перистые, Cs - перисто-слоистые, Cc - перисто-кучевые, Ac - высококучевые, As - высокослоистые, Sc - слоисто-кучевые, Ns - слоисто-дождевые, Cu - кучевые, Cb - кучево-дождевые. Подробнее классификацию облаков см. в Атласе облаков (PDF).
T - Температура воздуха - температура, измеренная на высоте 2 м над землей.
Td - Температура точки росы - температура, при понижении до которой содержащийся в воздухе водяной пар достигнет насыщения.
f - Относительная влажность воздуха - влажноcть воздуха, измеренная на высоте 2 м над землей.
Te - Эффективная температура - температура, которую ощущает одетый по сезону человек в тени. Характеристика душности погоды. При расчете учитывается влияние влажности воздуха и скорости ветра на теплоощущения человека.
Tes - Эффективная температура на солнце - температура, которую ощущает человек, с поправкой на солнечный нагрев. Характеристика знойности погоды. Зависит от высоты солнца над горизонтом, облачности и скорости ветра. Ночью, в пасмурную погоду, а также при ветре 12 м/с и более поправка равна нулю.
P - Атмосферное давление - приведенное к уровню моря атмосферное давление.
Po - Атмосферное давление - измеренное на уровне метеостанции атмосферное давление.
Tmin - Минимальная температура - минимум температуры воздуха на высоте 2 м над землей.
Tmax - Максимальная температура - максимум температуры воздуха на высоте 2 м над землей.
R - Количество осадков - Количество выпавших осадков за период времени, мм. При наведении курсора мыши на число - период времени, за который выпало указанное количество осадков.
R24 - Количество осадков - Количество выпавших осадков за 24 часа, мм.
S - Снежный покров - Высота снежного покрова, см. При наведении курсора мыши на число - состояние снежного покрова и степень покрытия местности в баллах.